NKS313 KDTW-KDFW

Flight info

Callsign NKS313
Flight time N/A
Altitude 32000
Route SNDRS3 BGHRT STL/N0468F340 RZC FSM RRNET SEEVR4
Aircraft A321/M-SDE3FGHIRWY/LB1

Departure

Time 2026-05-05 18:33
Airport Detroit Metropolitan Wayne County Airport (KDTW)

Arrival

Time N/A
Airport Dallas Fort Worth International Airport (KDFW)
Time Latitude Longitude Altitude Speed Heading
2026-05-05 17:59 42.22649 -83.34857 650 ft 0 kts 116°
2026-05-05 18:15 42.22650 -83.34860 649 ft 3 kts 116°
2026-05-05 18:16 42.22658 -83.34882 649 ft 3 kts 116°
2026-05-05 18:16 42.22666 -83.34905 650 ft 3 kts 116°
2026-05-05 18:16 42.22675 -83.34928 653 ft 3 kts 149°
2026-05-05 18:16 42.22694 -83.34933 651 ft 3 kts 211°
2026-05-05 18:17 42.22706 -83.34920 649 ft 0 kts 211°
2026-05-05 18:17 42.22706 -83.34919 649 ft 0 kts 211°
2026-05-05 18:19 42.22703 -83.34922 649 ft 2 kts 211°
2026-05-05 18:19 42.22671 -83.34948 650 ft 9 kts 211°
2026-05-05 18:19 42.22597 -83.35004 649 ft 14 kts 208°
2026-05-05 18:19 42.22518 -83.35095 649 ft 15 kts 258°
2026-05-05 18:20 42.22462 -83.35207 649 ft 16 kts 208°
2026-05-05 18:20 42.22363 -83.35279 651 ft 18 kts 209°
2026-05-05 18:20 42.22244 -83.35383 649 ft 21 kts 210°
2026-05-05 18:20 42.22113 -83.35468 649 ft 21 kts 208°
2026-05-05 18:21 42.21988 -83.35570 649 ft 21 kts 208°
2026-05-05 18:21 42.21861 -83.35654 648 ft 19 kts 186°
2026-05-05 18:21 42.21822 -83.35584 648 ft 6 kts 63°
2026-05-05 18:21 42.21821 -83.35518 649 ft 11 kts 94°
2026-05-05 18:22 42.21821 -83.35372 648 ft 19 kts 86°
2026-05-05 18:22 42.21825 -83.35196 649 ft 19 kts 89°
2026-05-05 18:22 42.21829 -83.35023 650 ft 18 kts 88°
2026-05-05 18:22 42.21833 -83.34852 650 ft 18 kts 87°
2026-05-05 18:23 42.21833 -83.34681 650 ft 18 kts 90°
2026-05-05 18:23 42.21848 -83.34522 650 ft 16 kts 62°
2026-05-05 18:23 42.21942 -83.34439 650 ft 17 kts 28°
2026-05-05 18:23 42.22043 -83.34362 650 ft 17 kts 28°
2026-05-05 18:24 42.22148 -83.34286 651 ft 17 kts 28°
2026-05-05 18:24 42.22255 -83.34207 650 ft 18 kts 28°
2026-05-05 18:24 42.22362 -83.34128 650 ft 18 kts 28°
2026-05-05 18:24 42.22470 -83.34050 650 ft 16 kts 30°
2026-05-05 18:25 42.22563 -83.33979 650 ft 12 kts 28°
2026-05-05 18:25 42.22611 -83.33944 651 ft 12 kts 28°
2026-05-05 18:25 42.22661 -83.33908 650 ft 0 kts 28°
2026-05-05 18:26 42.22665 -83.33905 652 ft 1 kts 28°
2026-05-05 18:26 42.22676 -83.33897 650 ft 2 kts 28°
2026-05-05 18:26 42.22692 -83.33885 650 ft 3 kts 28°
2026-05-05 18:26 42.22713 -83.33870 650 ft 4 kts 27°
2026-05-05 18:27 42.22740 -83.33851 650 ft 5 kts 27°
2026-05-05 18:27 42.22771 -83.33828 650 ft 6 kts 29°
2026-05-05 18:27 42.22808 -83.33799 649 ft 6 kts 29°
2026-05-05 18:27 42.22809 -83.33798 649 ft 0 kts 29°
2026-05-05 18:28 42.22815 -83.33794 649 ft 2 kts 29°
2026-05-05 18:28 42.22829 -83.33782 650 ft 3 kts 32°
2026-05-05 18:28 42.22848 -83.33758 652 ft 4 kts 55°
2026-05-05 18:29 42.22851 -83.33725 649 ft 0 kts 94°
2026-05-05 18:30 42.22851 -83.33723 649 ft 1 kts 95°
2026-05-05 18:30 42.22849 -83.33709 649 ft 4 kts 105°
2026-05-05 18:30 42.22829 -83.33659 649 ft 6 kts 125°
2026-05-05 18:31 42.22793 -83.33647 650 ft 5 kts 195°
2026-05-05 18:31 42.22773 -83.33661 650 ft 0 kts 208°
2026-05-05 18:32 42.22700 -83.33713 651 ft 42 kts 207°
2026-05-05 18:32 42.22231 -83.34057 652 ft 109 kts 208°
2026-05-05 18:33 42.21396 -83.34677 665 ft 162 kts 214°
2026-05-05 18:33 42.20406 -83.35496 1238 ft 170 kts 217°
2026-05-05 18:33 42.19331 -83.36332 1804 ft 188 kts 208°
2026-05-05 18:33 42.18044 -83.36935 2374 ft 202 kts 197°
2026-05-05 18:34 42.16650 -83.37195 2934 ft 204 kts 186°
2026-05-05 18:34 42.15231 -83.37302 3484 ft 203 kts 192°
2026-05-05 18:34 42.13854 -83.37669 4028 ft 201 kts 200°
2026-05-05 18:34 42.12507 -83.38085 4583 ft 201 kts 199°
2026-05-05 18:35 42.11137 -83.38441 5145 ft 201 kts 197°
2026-05-05 18:35 42.09732 -83.38860 5354 ft 215 kts 206°
2026-05-05 18:35 42.08274 -83.39639 5553 ft 235 kts 209°
2026-05-05 18:35 42.06890 -83.40809 6068 ft 235 kts 227°
2026-05-05 18:36 42.05718 -83.42339 6716 ft 236 kts 224°
2026-05-05 18:36 42.04444 -83.43753 6932 ft 238 kts 221°
2026-05-05 18:36 42.03121 -83.45088 6981 ft 237 kts 220°
2026-05-05 18:36 42.01785 -83.46388 6989 ft 237 kts 219°
2026-05-05 18:37 42.00444 -83.47677 6987 ft 237 kts 219°
2026-05-05 18:37 41.99107 -83.48970 6997 ft 237 kts 219°
2026-05-05 18:37 41.97779 -83.50295 7284 ft 239 kts 221°
2026-05-05 18:37 41.96461 -83.51654 7961 ft 239 kts 221°
2026-05-05 18:38 41.95142 -83.53025 8593 ft 240 kts 221°
2026-05-05 18:38 41.93813 -83.54406 9197 ft 242 kts 222°
2026-05-05 18:38 41.92476 -83.55792 9787 ft 244 kts 222°
2026-05-05 18:38 41.91123 -83.57190 10237 ft 251 kts 222°
2026-05-05 18:39 41.89692 -83.58672 10356 ft 268 kts 222°
2026-05-05 18:39 41.88169 -83.60251 10483 ft 285 kts 221°
2026-05-05 18:39 41.86553 -83.61920 10610 ft 301 kts 221°
2026-05-05 18:39 41.84853 -83.63671 10733 ft 316 kts 221°
2026-05-05 18:40 41.83071 -83.65503 10871 ft 329 kts 221°
2026-05-05 18:40 41.81233 -83.67386 11177 ft 335 kts 221°
2026-05-05 18:40 41.79368 -83.69290 11601 ft 339 kts 220°
2026-05-05 18:40 41.77486 -83.71208 12035 ft 342 kts 221°
2026-05-05 18:41 41.75610 -83.73122 12485 ft 344 kts 220°
2026-05-05 18:41 41.73699 -83.75075 12926 ft 347 kts 220°
2026-05-05 18:41 41.71771 -83.77050 13365 ft 351 kts 220°
2026-05-05 18:41 41.69813 -83.79019 13778 ft 355 kts 217°
2026-05-05 18:42 41.67696 -83.80760 14149 ft 359 kts 215°
2026-05-05 18:42 41.65551 -83.82484 14551 ft 361 kts 215°
2026-05-05 18:42 41.63390 -83.84217 14947 ft 363 kts 215°
2026-05-05 18:42 41.61222 -83.85955 15357 ft 365 kts 215°
2026-05-05 18:43 41.59036 -83.87708 15724 ft 367 kts 215°
2026-05-05 18:43 41.56839 -83.89470 16109 ft 369 kts 214°
2026-05-05 18:43 41.54627 -83.91239 16504 ft 371 kts 215°
2026-05-05 18:43 41.52406 -83.93016 16880 ft 373 kts 215°
2026-05-05 18:44 41.50173 -83.94804 17258 ft 375 kts 215°
2026-05-05 18:44 41.47929 -83.96599 17636 ft 377 kts 215°
2026-05-05 18:44 41.45673 -83.98401 18018 ft 379 kts 215°
2026-05-05 18:44 41.44169 -83.99602 18247 ft 380 kts 215°
2026-05-05 18:45 41.41897 -84.01416 18562 ft 382 kts 215°
2026-05-05 18:45 41.39596 -84.03256 18663 ft 389 kts 215°
2026-05-05 18:45 41.36482 -84.05742 18831 ft 398 kts 215°
2026-05-05 18:45 41.34085 -84.07651 18954 ft 405 kts 214°
2026-05-05 18:46 41.32445 -84.08953 19040 ft 409 kts 214°
2026-05-05 18:46 41.29983 -84.10908 19161 ft 414 kts 214°
2026-05-05 18:46 41.27578 -84.13021 19349 ft 414 kts 222°
2026-05-05 18:46 41.25528 -84.15676 19690 ft 410 kts 232°
2026-05-05 18:47 41.23930 -84.18789 20093 ft 407 kts 243°
2026-05-05 18:47 41.22792 -84.22217 20497 ft 405 kts 249°
2026-05-05 18:47 41.21774 -84.25644 21374 ft 389 kts 249°
2026-05-05 18:47 41.20798 -84.28919 21900 ft 388 kts 249°
2026-05-05 18:48 41.19799 -84.32265 22064 ft 392 kts 250°
2026-05-05 18:48 41.18788 -84.35640 22309 ft 394 kts 250°
2026-05-05 18:48 41.17772 -84.39029 22601 ft 396 kts 250°
2026-05-05 18:48 41.16737 -84.42476 22899 ft 397 kts 250°
2026-05-05 18:49 41.15724 -84.45836 23189 ft 399 kts 250°
2026-05-05 18:49 41.14689 -84.49259 23504 ft 400 kts 250°
2026-05-05 18:49 41.13651 -84.52689 23816 ft 402 kts 250°
2026-05-05 18:49 41.12605 -84.56145 24049 ft 406 kts 250°
2026-05-05 18:50 41.11552 -84.59638 24160 ft 410 kts 250°
2026-05-05 18:50 41.10501 -84.63173 24277 ft 413 kts 252°
2026-05-05 18:50 41.09756 -84.66847 24424 ft 414 kts 258°
2026-05-05 18:50 41.09133 -84.70575 24650 ft 413 kts 257°
2026-05-05 18:51 41.08512 -84.74278 24909 ft 412 kts 257°
2026-05-05 18:51 41.07888 -84.77978 25170 ft 410 kts 257°
2026-05-05 18:51 41.07266 -84.81655 25433 ft 409 kts 257°
2026-05-05 18:51 41.06642 -84.85329 25716 ft 407 kts 257°
2026-05-05 18:52 41.06017 -84.88983 25986 ft 406 kts 257°
2026-05-05 18:52 41.05391 -84.92630 26188 ft 406 kts 257°
2026-05-05 18:52 41.04765 -84.96283 26308 ft 408 kts 257°
2026-05-05 18:52 41.04138 -84.99957 26438 ft 409 kts 257°
2026-05-05 18:53 41.03510 -85.03641 26551 ft 410 kts 257°
2026-05-05 18:53 41.02882 -85.07324 26690 ft 411 kts 257°
2026-05-05 18:53 41.02248 -85.11023 26793 ft 412 kts 257°
2026-05-05 18:53 41.01609 -85.14728 26918 ft 414 kts 257°
2026-05-05 18:54 41.00965 -85.18450 27047 ft 415 kts 257°
2026-05-05 18:54 41.00317 -85.22174 27175 ft 415 kts 257°
2026-05-05 18:54 40.99668 -85.25896 27305 ft 415 kts 257°
2026-05-05 18:54 40.99021 -85.29615 27459 ft 414 kts 257°
2026-05-05 18:55 40.98376 -85.33329 27649 ft 414 kts 257°
2026-05-05 18:55 40.97730 -85.37038 27817 ft 413 kts 257°
2026-05-05 18:55 40.97085 -85.40737 27984 ft 412 kts 257°
2026-05-05 18:55 40.96444 -85.44431 28175 ft 411 kts 258°
2026-05-05 18:56 40.95806 -85.48109 28376 ft 410 kts 258°
2026-05-05 18:56 40.95166 -85.51779 28591 ft 409 kts 258°
2026-05-05 18:56 40.94523 -85.55438 28855 ft 408 kts 258°
2026-05-05 18:56 40.93880 -85.59086 29134 ft 407 kts 258°
2026-05-05 18:57 40.93243 -85.62673 29395 ft 405 kts 258°
2026-05-05 18:57 40.92590 -85.66341 29661 ft 404 kts 258°
2026-05-05 18:57 40.91946 -85.69954 29897 ft 403 kts 258°
2026-05-05 18:57 40.91311 -85.73509 30076 ft 402 kts 258°
2026-05-05 18:58 40.90663 -85.77146 30240 ft 401 kts 258°
2026-05-05 18:58 40.90029 -85.80685 30389 ft 400 kts 258°
2026-05-05 18:58 40.89387 -85.84261 30534 ft 399 kts 258°
2026-05-05 18:58 40.88748 -85.87829 30686 ft 399 kts 258°
2026-05-05 18:59 40.88254 -85.91416 30828 ft 397 kts 263°
2026-05-05 18:59 40.87875 -85.95032 30969 ft 396 kts 263°
2026-05-05 18:59 40.87494 -85.98634 31122 ft 395 kts 263°
2026-05-05 18:59 40.87111 -86.02227 31277 ft 395 kts 263°
2026-05-05 19:00 40.86728 -86.05809 31457 ft 394 kts 263°
2026-05-05 19:00 40.86343 -86.09385 31650 ft 392 kts 263°
2026-05-05 19:00 40.85958 -86.12947 31830 ft 391 kts 263°
2026-05-05 19:00 40.85573 -86.16499 31897 ft 391 kts 263°
2026-05-05 19:01 40.84805 -86.23568 31880 ft 387 kts 264°
2026-05-05 19:01 40.84032 -86.30604 31887 ft 387 kts 264°
2026-05-05 19:02 40.83252 -86.37626 31888 ft 386 kts 264°
2026-05-05 19:02 40.82481 -86.44637 31887 ft 386 kts 264°
2026-05-05 19:03 40.81707 -86.51651 31898 ft 386 kts 264°
2026-05-05 19:03 40.80929 -86.58629 31918 ft 386 kts 264°
2026-05-05 19:04 40.80141 -86.65632 31922 ft 385 kts 264°
2026-05-05 19:04 40.79352 -86.72616 31923 ft 384 kts 264°
2026-05-05 19:05 40.78562 -86.79595 31926 ft 384 kts 264°
2026-05-05 19:05 40.77765 -86.86558 31932 ft 384 kts 264°
2026-05-05 19:06 40.76971 -86.93519 31930 ft 384 kts 264°
2026-05-05 19:06 40.76159 -87.00473 31938 ft 383 kts 264°
2026-05-05 19:07 40.75344 -87.07414 31933 ft 383 kts 264°
2026-05-05 19:07 40.74536 -87.14347 31928 ft 382 kts 264°
2026-05-05 19:08 40.73729 -87.21273 31924 ft 382 kts 264°
2026-05-05 19:08 40.72915 -87.28188 31923 ft 382 kts 263°
2026-05-05 19:09 40.72088 -87.35108 31925 ft 382 kts 263°
2026-05-05 19:09 40.71262 -87.42015 31930 ft 381 kts 263°
2026-05-05 19:10 40.70436 -87.48906 31933 ft 380 kts 263°
2026-05-05 19:10 40.69613 -87.55784 31931 ft 380 kts 263°
2026-05-05 19:11 40.68776 -87.62664 31914 ft 381 kts 263°
2026-05-05 19:11 40.67932 -87.69532 31909 ft 383 kts 263°
2026-05-05 19:12 40.67080 -87.76464 31921 ft 383 kts 263°
2026-05-05 19:12 40.66229 -87.83388 31927 ft 383 kts 263°
2026-05-05 19:13 40.65303 -87.90291 31931 ft 385 kts 258°
2026-05-05 19:13 40.62811 -87.96607 31928 ft 401 kts 237°
2026-05-05 19:14 40.59083 -88.02119 31933 ft 403 kts 236°
2026-05-05 19:14 40.55345 -88.07637 31931 ft 404 kts 236°
2026-05-05 19:15 40.51614 -88.13142 31954 ft 403 kts 237°
2026-05-05 19:15 40.47887 -88.18636 31959 ft 402 kts 237°
2026-05-05 19:16 40.44163 -88.24120 31929 ft 402 kts 237°
2026-05-05 19:16 40.40434 -88.29605 31934 ft 403 kts 237°
2026-05-05 19:17 40.36690 -88.35101 31942 ft 404 kts 237°
2026-05-05 19:17 40.32940 -88.40595 31945 ft 404 kts 237°
2026-05-05 19:18 40.29179 -88.46086 31944 ft 405 kts 237°
2026-05-05 19:18 40.25443 -88.51527 31944 ft 404 kts 237°
2026-05-05 19:19 40.21687 -88.56997 31916 ft 404 kts 237°
2026-05-05 19:19 40.17930 -88.62470 31895 ft 406 kts 237°
2026-05-05 19:20 40.14142 -88.67973 31899 ft 408 kts 237°
2026-05-05 19:20 40.10334 -88.73496 31908 ft 410 kts 237°
2026-05-05 19:21 40.06507 -88.79020 31938 ft 411 kts 237°
2026-05-05 19:21 40.02670 -88.84546 31953 ft 411 kts 237°
2026-05-05 19:22 39.98831 -88.90069 31931 ft 412 kts 237°
2026-05-05 19:22 39.94979 -88.95607 31943 ft 412 kts 237°
2026-05-05 19:23 39.91127 -89.01142 31952 ft 413 kts 237°
2026-05-05 19:23 39.87269 -89.06680 31937 ft 413 kts 237°
2026-05-05 19:24 39.83404 -89.12208 31948 ft 413 kts 237°
2026-05-05 19:24 39.79531 -89.17736 31917 ft 413 kts 237°
2026-05-05 19:25 39.75658 -89.23254 31960 ft 413 kts 237°
2026-05-05 19:25 39.71783 -89.28767 31978 ft 413 kts 237°
2026-05-05 19:26 39.67905 -89.34279 31983 ft 413 kts 237°
2026-05-05 19:26 39.64052 -89.39736 31989 ft 413 kts 237°
2026-05-05 19:27 39.60165 -89.45227 31990 ft 413 kts 237°
2026-05-05 19:27 39.56280 -89.50710 31948 ft 413 kts 237°
2026-05-05 19:28 39.52389 -89.56195 31967 ft 413 kts 237°
2026-05-05 19:28 39.48504 -89.61677 31970 ft 413 kts 237°
2026-05-05 19:29 39.44608 -89.67155 31965 ft 414 kts 237°
2026-05-05 19:29 39.40710 -89.72622 31969 ft 414 kts 237°
2026-05-05 19:30 39.36799 -89.78087 31969 ft 414 kts 237°
2026-05-05 19:30 39.32897 -89.83546 31928 ft 413 kts 236°
2026-05-05 19:31 39.28999 -89.88999 31955 ft 414 kts 236°
2026-05-05 19:31 39.25106 -89.94409 31961 ft 414 kts 236°
2026-05-05 19:32 39.21186 -89.99844 31973 ft 414 kts 236°
2026-05-05 19:32 39.17273 -90.05271 31972 ft 413 kts 236°
2026-05-05 19:33 39.13361 -90.10696 31970 ft 413 kts 236°
2026-05-05 19:33 39.09480 -90.16057 31941 ft 403 kts 236°
2026-05-05 19:34 39.05702 -90.21254 31937 ft 393 kts 236°
2026-05-05 19:35 39.00142 -90.28923 31946 ft 390 kts 236°
2026-05-05 19:35 38.96438 -90.34029 31941 ft 390 kts 236°
2026-05-05 19:36 38.93354 -90.38267 31951 ft 391 kts 236°
2026-05-05 19:36 38.89635 -90.43358 31959 ft 391 kts 236°
2026-05-05 19:37 38.85912 -90.48445 31926 ft 391 kts 235°
2026-05-05 19:37 38.82290 -90.53628 31939 ft 389 kts 237°
2026-05-05 19:38 38.78772 -90.58899 31944 ft 389 kts 238°
2026-05-05 19:38 38.75243 -90.64157 31951 ft 390 kts 237°
2026-05-05 19:39 38.71699 -90.69355 31948 ft 390 kts 237°
2026-05-05 19:39 38.68129 -90.74579 31950 ft 390 kts 237°
2026-05-05 19:40 38.64534 -90.79832 31921 ft 390 kts 237°
2026-05-05 19:40 38.60958 -90.85041 31934 ft 390 kts 237°
2026-05-05 19:41 38.57403 -90.90214 31942 ft 390 kts 237°
2026-05-05 19:41 38.53819 -90.95422 31962 ft 390 kts 237°
2026-05-05 19:42 38.50233 -91.00625 31967 ft 390 kts 237°
2026-05-05 19:42 38.46646 -91.05828 31966 ft 390 kts 237°
2026-05-05 19:43 38.43056 -91.11023 31960 ft 390 kts 237°
2026-05-05 19:43 38.39466 -91.16210 31970 ft 390 kts 237°
2026-05-05 19:44 38.35859 -91.21396 31969 ft 390 kts 237°
2026-05-05 19:44 38.32263 -91.26564 31974 ft 389 kts 237°
2026-05-05 19:45 38.28683 -91.31723 31974 ft 389 kts 237°
2026-05-05 19:45 38.25089 -91.36885 31970 ft 389 kts 237°
2026-05-05 19:46 38.21494 -91.42032 31967 ft 389 kts 236°
2026-05-05 19:46 38.17894 -91.47173 31916 ft 389 kts 236°
2026-05-05 19:47 38.14298 -91.52311 31928 ft 389 kts 236°
2026-05-05 19:47 38.10689 -91.57449 31934 ft 390 kts 236°
2026-05-05 19:48 38.07077 -91.62585 31957 ft 390 kts 236°
2026-05-05 19:48 38.03471 -91.67720 31958 ft 390 kts 236°
2026-05-05 19:49 37.99904 -91.72791 31947 ft 390 kts 236°
2026-05-05 19:49 37.96288 -91.77918 31924 ft 390 kts 236°
2026-05-05 19:50 37.92658 -91.83041 31886 ft 390 kts 236°
2026-05-05 19:50 37.89033 -91.88156 31886 ft 391 kts 236°
2026-05-05 19:51 37.85401 -91.93279 31892 ft 391 kts 236°
2026-05-05 19:51 37.81786 -91.98373 31902 ft 390 kts 236°
2026-05-05 19:52 37.78178 -92.03439 31906 ft 390 kts 236°
2026-05-05 19:52 37.74568 -92.08495 31910 ft 390 kts 236°
2026-05-05 19:53 37.70939 -92.13584 31913 ft 390 kts 236°